This is the latest recevied weather packets stored in our database for station/object N3LF. If no packets are shown the sender has not sent any weather packets the latest 10 day(s).
| Time | Temp. | Humidity | Pressure | Rain* | Wind** | Luminosity | Snow |
|---|---|---|---|---|---|---|---|
| 1788468767 | 38.89° C | 44% | 1017.1 hPa | 0 mm | - | 403 W/m² | - |
| 1788468463 | 38.33° C | 45% | 1017.1 hPa | 0 mm | - | 416 W/m² | - |
| 1788468159 | 39.44° C | 45% | 1017.2 hPa | 0 mm | - | 430 W/m² | - |
| 1788467854 | 38.33° C | 47% | 1017.2 hPa | 0 mm | - | 454 W/m² | - |
| 1788467550 | 37.78° C | 47% | 1017.1 hPa | 0 mm | - | 458 W/m² | - |
| 1788467249 | 38.33° C | 49% | 1017.2 hPa | 0 mm | - | 460 W/m² | - |
| 1788466946 | 38.89° C | 45% | 1017.3 hPa | 0 mm | - | 484 W/m² | - |
| 1788466645 | 38.89° C | 46% | 1017.6 hPa | 0 mm | - | 503 W/m² | - |
| 1788466341 | 37.22° C | 47% | 1017.5 hPa | 0 mm | - | 520 W/m² | - |
| 1788466039 | 36.11° C | 48% | 1017.5 hPa | 0 mm | - | 526 W/m² | - |
| 1788465735 | 36.67° C | 49% | 1017.5 hPa | 0 mm | - | 108 W/m² | - |
| 1788465430 | 36.67° C | 50% | 1017.6 hPa | 0 mm | - | 129 W/m² | - |
| 1788465126 | 36.11° C | 48% | 1017.7 hPa | 0 mm | - | 537 W/m² | - |
| 1788464826 | 36.11° C | 51% | 1017.8 hPa | 0 mm | - | 187 W/m² | - |
| 1788464522 | 38.33° C | 46% | 1017.8 hPa | 0 mm | - | 103 W/m² | - |
| 1788464217 | 38.89° C | 43% | 1017.8 hPa | 0 mm | - | 568 W/m² | - |
| 1788463912 | 38.89° C | 47% | 1017.8 hPa | 0 mm | - | 587 W/m² | - |
| 1788463608 | 38.89° C | 47% | 1018.1 hPa | 0 mm | - | 595 W/m² | - |
| 1788463308 | 38.33° C | 45% | 1018 hPa | 0 mm | - | 590 W/m² | - |
| 1788463004 | 37.78° C | 44% | 1018.1 hPa | 0 mm | - | 610 W/m² | - |
| 1788462704 | 36.67° C | 47% | 1018 hPa | 0 mm | - | 614 W/m² | - |
| 1788462399 | 37.22° C | 48% | 1018.2 hPa | 0 mm | - | 161 W/m² | - |
| 1788462099 | 37.78° C | 47% | 1018.1 hPa | 0 mm | - | 167 W/m² | - |
| 1788461794 | 37.78° C | 49% | 1018.4 hPa | 0 mm | - | 629 W/m² | - |
| 1788461489 | 36.11° C | 48% | 1018.2 hPa | 0 mm | - | 639 W/m² | - |
* Rain latest hour (hover to see other rain measurements)
** Current wind speed in m/s (hover to see current wind gust speed)